Kamez, Albania

12:03 PM CEST on July 22, 2017 (GMT +0200)
Kamez

Weather History for 13615 - May, 2013

Change the Weather History Date:

Friday, May 3, 2013

  Actual Average Record
Temperature  
Mean Temperature 67 °F -  
Max Temperature 75 °F 74 °F - ()
Min Temperature 59 °F 57 °F - ()
Cooling Degree Days 2    
Growing Degree Days 17 (Base 50)    
Moisture  
Dew Point 58 °F    
Average Humidity 68    
Maximum Humidity 90    
Minimum Humidity 33    
Precipitation  
Precipitation 0.00 in -13.12 in - ()
Sea Level Pressure  
Sea Level Pressure 29.94 in    
Wind  
Wind Speed 4 mph ()    
Max Wind Speed 10 mph    
Max Gust Speed -    
Visibility 6.3 miles    
Events Rain    
T = Trace of Precipitation, MM = Missing Value Source: Averaged Metar Reports

Daily Weather History Graph

Daily Weather History Graph

Search for Another Location

Airport or City:

Trip Planner

Search our weather history database for the weather conditions in past years. The results will help you decide how hot, cold, wet, or windy it might be!

Date:

Astronomy

May. 03, 2013 Rise Set
Actual Time 5:35 AM CEST 7:40 PM CEST
Civil Twilight 5:05 AM CEST 8:10 PM CEST
Nautical Twilight 4:28 AM CEST 8:47 PM CEST
Astronomical Twilight 3:48 AM CEST 9:28 PM CEST
Moon 1:53 AM CEST (5/3) 1:11 PM CEST (5/3)
Length of Visible Light 15h 05m
Length of Day
14h 04m
Last Quarter, 40% of the Moon is Illuminated
May 3
Last Quarter
May 10
New
May 18
First Quarter
May 25
Full
May 31
Last Quarter

Hourly Weather History & Observations

Time (CEST) Temp. Dew Point Humidity Pressure Visibility Wind Dir Wind Speed Gust Speed Precip Events Conditions
5:00 AM 59 °F 57 °F 90% 29.92 in 4 mi East 4.5 mph - -  
5:50 AM 59.0 °F 55.4 °F 88% 29.92 in 4.3 mi SSW 3.5 mph - N/A   Unknown
6:50 AM 60.8 °F 57.2 °F 88% 29.92 in 6.2 mi East 3.5 mph - N/A   Scattered Clouds
7:20 AM 64.4 °F 59.0 °F 83% 29.95 in 6.2 mi Variable 2.3 mph - N/A   Mostly Cloudy
8:20 AM 66.2 °F 57.2 °F 73% 29.98 in 6.2 mi SW 5.8 mph - N/A   Mostly Cloudy
8:50 AM 69.8 °F 55.4 °F 60% 29.95 in 6.2 mi Variable 2.3 mph - N/A   Mostly Cloudy
9:20 AM 73.4 °F 57.2 °F 57% 29.95 in 6.2 mi Calm Calm - N/A   Mostly Cloudy
9:50 AM 73.4 °F 53.6 °F 50% 29.95 in 6.2 mi West 3.5 mph - N/A   Mostly Cloudy
10:20 AM 73.4 °F 50.0 °F 44% 29.98 in 6.2 mi Variable 2.3 mph - N/A   Mostly Cloudy
10:50 AM 75.2 °F 51.8 °F 44% 29.95 in 6.2 mi Calm Calm - N/A   Mostly Cloudy
11:00 AM 74 °F 51 °F 33% 29.96 in 22 mi East 2.2 mph - -   Scattered Clouds
11:20 AM 75.2 °F 50.0 °F 41% 29.95 in 6.2 mi Calm Calm - N/A   Mostly Cloudy
11:50 AM 73.4 °F 53.6 °F 50% 29.95 in 6.2 mi West 4.6 mph - N/A   Mostly Cloudy
12:20 PM 75.2 °F 57.2 °F 53% 29.95 in 6.2 mi North 6.9 mph - N/A   Mostly Cloudy
12:50 PM 75.2 °F 59.0 °F 57% 29.98 in 6.2 mi NW 9.2 mph - N/A   Mostly Cloudy
1:20 PM 73.4 °F 62.6 °F 69% 29.98 in 6.2 mi NNW 9.2 mph - N/A   Overcast
1:50 PM 73.4 °F 60.8 °F 65% 29.98 in 6.2 mi NNW 10.4 mph - N/A   Overcast
2:20 PM 71.6 °F 60.8 °F 69% 29.95 in 6.2 mi NNW 10.4 mph - N/A   Mostly Cloudy
2:50 PM 71.6 °F 62.6 °F 73% 29.95 in 6.2 mi NW 8.1 mph - N/A   Overcast
3:20 PM 71.6 °F 64.4 °F 78% 29.92 in 6.2 mi North 8.1 mph - N/A Rain Light Rain
3:50 PM 73.4 °F 64.4 °F 73% 29.92 in 6.2 mi NW 5.8 mph - N/A   Mostly Cloudy
4:50 PM 75.2 °F 62.6 °F 65% 29.89 in 6.2 mi WNW 3.5 mph - N/A   Mostly Cloudy
5:00 PM 74 °F 62 °F 58% 29.91 in 14 mi West 2.2 mph - -   Partly Cloudy
5:20 PM 75.2 °F 60.8 °F 61% 29.92 in 6.2 mi Calm Calm - N/A   Mostly Cloudy
5:50 PM 73.4 °F 60.8 °F 65% 29.92 in 6.2 mi North 6.9 mph - N/A   Mostly Cloudy
6:20 PM 73.4 °F 59.0 °F 61% 29.89 in 6.2 mi North 6.9 mph - N/A   Mostly Cloudy
6:50 PM 73.4 °F 60.8 °F 65% 29.89 in 6.2 mi NW 9.2 mph - N/A   Scattered Clouds
7:20 PM 69.8 °F 57.2 °F 64% 29.92 in 6.2 mi NW 6.9 mph - N/A   Scattered Clouds
7:50 PM 68.0 °F 55.4 °F 64% 29.92 in 6.2 mi NNW 3.5 mph - N/A   Partly Cloudy
8:20 PM 66.2 °F 55.4 °F 68% 29.92 in 6.2 mi Variable 2.3 mph - N/A   Partly Cloudy
8:50 PM 66.2 °F 57.2 °F 73% 29.92 in - East 3.5 mph - N/A   Clear
9:20 PM 62.6 °F 57.2 °F 82% 29.92 in - Calm Calm - N/A   Clear
9:50 PM 62.6 °F 57.2 °F 82% 29.95 in - Calm Calm - N/A   Clear
10:20 PM 60.8 °F 57.2 °F 88% 29.95 in - Calm Calm - N/A   Clear
10:50 PM 60.8 °F 57.2 °F 88% 29.95 in - South 2.3 mph - N/A   Clear
11:00 PM 60 °F 56 °F 82% 29.95 in 5 mi West 2.2 mph - -  
11:20 PM 60.8 °F 57.2 °F 88% 29.95 in - Calm Calm - N/A   Clear
11:50 PM 59.0 °F 55.4 °F 88% 29.95 in - Calm Calm - N/A   Clear